Talkeetna, AK

10:20 AM AKST on February 25, 2017 (GMT -0900)
Talkeetna

Weather History for PATK - July, 2014

Change the Weather History Date:

Thursday, July 3, 2014

  Actual Average Record
Temperature  
Mean Temperature 64 °F -  
Max Temperature 78 °F 68 °F 88 °F (1999)
Min Temperature 50 °F 48 °F 36 °F (1954)
Degree Days  
Heating Degree Days 1    
Growing Degree Days 14 (Base 50)    
Moisture  
Dew Point 48 °F    
Average Humidity 54    
Maximum Humidity 89    
Minimum Humidity 26    
Precipitation  
Precipitation 0.00 in - - ()
Sea Level Pressure  
Sea Level Pressure 29.83 in    
Wind  
Wind Speed 2 mph (West)    
Max Wind Speed 7 mph    
Max Gust Speed -    
Visibility 10 miles    
Events      
Averages and records for this station are not official NWS values.
T = Trace of Precipitation, MM = Missing Value Source: NWS Daily Summary

Daily Weather History Graph

Daily Weather History Graph

Search for Another Location

Airport or City:

Trip Planner

Search our weather history database for the weather conditions in past years. The results will help you decide how hot, cold, wet, or windy it might be!

Date:

Astronomy

Jul. 03, 2014 Rise Set
Actual Time 4:15 AM AKDT 11:52 PM AKDT
Civil Twilight 2:37 AM AKDT 1:32 AM AKDT
Nautical Twilight Sun does not rise Sun does not rise
Astronomical Twilight Sun does not rise Sun does not rise
Moon 12:44 PM AKDT (7/3) 12:40 AM AKDT (7/3)
Length of Visible Light 22h 55m
Length of Day
19h 36m
Waxing Crescent, 34% of the Moon is Illuminated
Jul 3
Waxing Crescent
Jul 5
First Quarter
Jul 12
Full
Jul 18
Last Quarter
Jul 26
New

Hourly Weather History & Observations

Time (AKDT) Temp. Dew Point Humidity Pressure Visibility Wind Dir Wind Speed Gust Speed Precip Events Conditions
12:53 AM 59.0 °F 48.9 °F 69% 29.84 in 10.0 mi Calm Calm - N/A   Clear
1:53 AM 55.9 °F 48.0 °F 75% 29.84 in 10.0 mi Calm Calm - N/A   Clear
2:53 AM 54.0 °F 48.9 °F 83% 29.84 in 10.0 mi Calm Calm - N/A   Clear
3:53 AM 50.0 °F 46.9 °F 89% 29.85 in 10.0 mi Calm Calm - N/A   Clear
4:53 AM 52.0 °F 46.9 °F 83% 29.86 in 10.0 mi Calm Calm - N/A   Overcast
5:53 AM 52.0 °F 46.9 °F 83% 29.86 in 10.0 mi East 3.5 mph - N/A   Overcast
6:53 AM 59.0 °F 46.0 °F 62% 29.86 in 10.0 mi NNE 3.5 mph - N/A   Overcast
7:53 AM 61.0 °F 46.9 °F 60% 29.86 in 10.0 mi NNE 4.6 mph - N/A   Clear
8:53 AM 64.0 °F 48.9 °F 58% 29.86 in 10.0 mi West 3.5 mph - N/A   Clear
9:53 AM 64.9 °F 48.9 °F 56% 29.86 in 10.0 mi Calm Calm - N/A   Mostly Cloudy
11:53 AM 68.0 °F 46.9 °F 47% 29.85 in 10.0 mi Variable 4.6 mph - N/A   Partly Cloudy
12:53 PM 69.1 °F 48.9 °F 49% 29.84 in 10.0 mi Variable 3.5 mph - N/A   Clear
1:53 PM 71.1 °F 46.9 °F 42% 29.84 in 10.0 mi Variable 3.5 mph - N/A   Mostly Cloudy
2:53 PM 73.0 °F 48.0 °F 41% 29.83 in 10.0 mi West 3.5 mph - N/A   Scattered Clouds
3:53 PM 73.9 °F 46.0 °F 37% 29.82 in 10.0 mi SW 6.9 mph - N/A   Mostly Cloudy
4:53 PM 75.9 °F 45.0 °F 33% 29.81 in 10.0 mi WSW 4.6 mph - N/A   Overcast
5:53 PM 77.0 °F 41.0 °F 28% 29.80 in 10.0 mi Variable 3.5 mph - N/A   Scattered Clouds
6:53 PM 75.9 °F 45.0 °F 33% 29.80 in 10.0 mi Variable 3.5 mph - N/A   Scattered Clouds
7:53 PM 75.9 °F 45.0 °F 33% 29.80 in 10.0 mi Calm Calm - N/A   Clear
8:53 PM 75.9 °F 45.0 °F 33% 29.80 in 10.0 mi SW 3.5 mph - N/A   Mostly Cloudy
9:53 PM 75.0 °F 51.1 °F 43% 29.80 in 10.0 mi Calm Calm - N/A   Partly Cloudy
10:53 PM 69.1 °F 52.0 °F 54% 29.81 in 10.0 mi Calm Calm - N/A   Scattered Clouds
11:53 PM 64.0 °F 54.0 °F 70% 29.81 in 8.0 mi Calm Calm - N/A   Mostly Cloudy